YZ-1 R/B (43248 NORAD) Tracking and Keplerian Element Data

This shows tracking and keplerian element data for the satellite.

Feedback or suggestion? Click here.




ElementValue
Catalog43248
NameYZ-1 R/B
Epoch Orbit50
Epoch Day117.03589107
Epoch Year2018
RAAN42.5005
Inclination55.2708
Eccentricity0.0097201
Argument of Perigee344.7054
Mean Anonmoly14.9837
Mean Motion1.7772542
Decay Rate-9E-07
L11 43248U 18029D 18117.03589107 -.00000090 00000-0 00000+0 0 9991
L22 43248 55.2708 42.5005 0097201 344.7054 14.9837 1.77725420 504

Live tracking and technical data element details for YZ-1 R/B (NORAD 43248). YZ-1 R/B can be tracked NOW for your location showing map with azimuth and elevation plus other details from your city location.

Track the satellite on the map from your city or location and see movement details for azimuth, elevation, latitude, longitude, range, height, and movement on the map or in text.







IsCatalogInMostPopularTable: catalog: 43248, numindb: 50
Update: records affected: 1



GetName: 43248 YZ-1 R/B

Hit Count: updated at: Sat, 17 Nov 2018 02:45:28 GMT